EW5507 Weather Reports


time (UTC)temp
F
wind
direction
speed
knots
gust
knots
rain 1hr
in
rain 24hr
in
rain mn
in
humidity
%
barometer
mb
20260503053330 60 144 0.0 0.0 0.00 0.00 0.00 35 1009.9
20260503052826 60 126 0.0 0.0 0.00 0.00 0.00 36 1009.9
20260503052323 60 136 0.0 0.0 0.00 0.00 0.00 36 1009.9
20260503051819 59 139 0.0 0.0 0.00 0.00 0.00 36 1009.9
20260503051315 59 128 0.0 0.9 0.00 0.00 0.00 35 1010.3
20260503050812 58 143 0.0 0.0 0.00 0.00 0.00 36 1009.9
20260503050308 57 116 0.0 0.0 0.00 0.00 0.00 35 1009.9
20260503045806 57 136 0.0 0.9 0.00 0.00 0.00 35 1010.3
20260503045305 57 160 0.0 0.0 0.00 0.00 0.00 39 1009.9
20260503044800 57 149 0.0 0.0 0.00 0.00 0.00 40 1009.9
20260503044257 58 152 0.0 0.0 0.00 0.00 0.00 41 1009.5
20260503043754 59 165 0.0 0.0 0.00 0.00 0.00 41 1009.5
20260503043251 59 163 0.0 0.9 0.00 0.00 0.00 39 1009.5
20260503042747 60 162 0.0 0.9 0.00 0.00 0.00 38 1009.5
20260503042244 60 157 0.9 0.9 0.00 0.00 0.00 39 1009.9
20260503041739 60 160 0.0 0.0 0.00 0.00 0.00 37 1009.9
20260503041238 60 145 0.0 0.0 0.00 0.00 0.00 36 1009.9
20260503040735 60 92 0.0 0.9 0.00 0.00 0.00 36 1009.5
20260503040233 61 140 0.0 0.0 0.00 0.00 0.00 35 1009.5
20260503035729 61 32 1.7 1.7 0.00 0.00 0.00 35 1009.5
20260503035227 61 144 0.0 0.0 0.00 0.00 0.00 34 1009.5
20260503034724 62 140 0.0 0.0 0.00 0.00 0.00 35 1009.5
20260503034221 62 155 0.0 0.0 0.00 0.00 0.00 35 1009.5
20260503033718 63 155 0.0 0.0 0.00 0.00 0.00 34 1009.2
20260503033215 63 157 0.0 0.0 0.00 0.00 0.00 33 1009.5
20260503032714 63 159 0.0 0.0 0.00 0.00 0.00 34 1009.5
20260503032212 64 161 0.0 0.0 0.00 0.00 0.00 33 1009.2
20260503031709 64 162 0.0 0.0 0.00 0.00 0.00 33 1009.5
20260503031208 64 160 0.0 0.0 0.00 0.00 0.00 32 1009.5
20260503030703 65 157 0.0 0.0 0.00 0.00 0.00 32 1009.5
20260503030159 65 156 0.0 0.0 0.00 0.00 0.00 32 1009.5
20260503025656 65 154 0.0 0.0 0.00 0.00 0.00 32 1009.5
20260503025154 66 147 0.0 0.0 0.00 0.00 0.00 32 1009.5
20260503024650 66 157 0.0 0.0 0.00 0.00 0.00 32 1009.5
20260503024148 66 159 0.0 0.0 0.00 0.00 0.00 31 1009.9
20260503023644 67 153 0.0 0.0 0.00 0.00 0.00 31 1009.2
20260503023141 67 139 0.0 0.0 0.00 0.00 0.00 30 1009.5
20260503022637 67 142 0.0 0.0 0.00 0.00 0.00 30 1009.5
20260503022132 68 148 0.0 0.0 0.00 0.00 0.00 30 1009.5
20260503021629 68 141 0.0 0.0 0.00 0.00 0.00 29 1009.5
20260503021125 68 142 0.0 0.0 0.00 0.00 0.00 29 1009.5
20260503020622 68 143 0.0 1.7 0.00 0.00 0.00 29 1009.5
20260503020120 68 55 1.7 1.7 0.00 0.00 0.00 28 1009.5
20260503015616 69 121 0.0 0.0 0.00 0.00 0.00 28 1009.5
20260503015114 69 96 0.9 1.7 0.00 0.00 0.00 28 1009.5
20260503014609 69 109 0.0 0.0 0.00 0.00 0.00 27 1009.9
20260503014107 69 298 2.6 2.6 0.00 0.00 0.00 28 1009.9
20260503013604 69 10 0.9 2.6 0.00 0.00 0.00 28 1009.9
20260503013102 69 95 0.9 1.7 0.00 0.00 0.00 29 1009.9
20260503012559 69 97 0.9 2.6 0.00 0.00 0.00 29 1010.3
20260503012056 69 84 1.7 2.6 0.00 0.00 0.00 29 1009.9
20260503011552 69 104 0.9 1.7 0.00 0.00 0.00 30 1009.9
20260503011050 69 128 0.0 0.0 0.00 0.00 0.00 30 1009.9
20260503010545 69 76 2.6 2.6 0.00 0.00 0.00 30 1009.9
20260503010043 69 294 2.6 4.3 0.00 0.00 0.00 29 1010.3
20260503005540 69 341 3.5 4.3 0.00 0.00 0.00 30 1009.9
20260503005038 69 27 0.9 0.9 0.00 0.00 0.00 30 1009.9
20260503004533 69 160 0.0 0.0 0.00 0.00 0.00 31 1010.3
20260503004032 69 69 0.0 1.7 0.00 0.00 0.00 30 1010.3
20260503003528 70 153 1.7 2.6 0.00 0.00 0.00 30 1010.3
20260503003025 70 117 0.9 1.7 0.00 0.00 0.00 30 1010.3
20260503002522 70 76 0.9 1.7 0.00 0.00 0.00 30 1010.3
20260503002019 70 116 0.9 1.7 0.00 0.00 0.00 30 1010.3
20260503001515 70 81 0.0 0.9 0.00 0.00 0.00 30 1010.6
20260503001013 70 312 2.6 2.6 0.00 0.00 0.00 30 1010.6
20260503000510 70 63 1.7 2.6 0.00 0.00 0.00 30 1010.6
20260503000007 70 45 1.7 4.3 0.00 0.00 0.00 30 1010.6
20260502235504 70 93 0.9 1.7 0.00 0.00 0.00 30 1010.9
20260502235002 70 135 0.0 0.9 0.00 0.00 0.00 29 1010.9
20260502234458 70 114 0.9 1.7 0.00 0.00 0.00 29 1010.9
20260502233955 70 147 0.0 0.0 0.00 0.00 0.00 30 1011.4
20260502233450 70 207 0.9 1.7 0.00 0.00 0.00 31 1011.4
20260502232947 70 116 2.6 4.3 0.00 0.00 0.00 30 1010.9
20260502232443 70 148 2.6 4.3 0.00 0.00 0.00 31 1011.7
20260502231940 70 157 0.9 0.9 0.00 0.00 0.00 30 1011.4
20260502231438 70 310 0.9 1.7 0.00 0.00 0.00 30 1011.7
20260502230936 69 139 1.7 1.7 0.00 0.00 0.00 30 1011.7
20260502230433 69 160 0.9 1.7 0.00 0.00 0.00 30 1011.7
20260502225931 69 79 0.0 0.9 0.00 0.00 0.00 31 1012.1
20260502225427 69 252 0.9 0.9 0.00 0.00 0.00 31 1012.1
20260502224924 69 333 0.9 1.7 0.00 0.00 0.00 30 1012.4
20260502224420 70 182 0.0 0.9 0.00 0.00 0.00 31 1012.4
20260502223917 69 295 0.9 1.7 0.00 0.00 0.00 29 1012.4
20260502223415 69 350 1.7 1.7 0.00 0.00 0.00 30 1012.4
20260502222914 69 5 1.7 2.6 0.00 0.00 0.00 31 1012.4
20260502222411 69 15 0.0 0.9 0.00 0.00 0.00 30 1012.7
20260502221910 69 139 3.5 6.1 0.00 0.00 0.00 30 1012.7
20260502221408 69 167 0.0 0.9 0.00 0.00 0.00 31 1012.7
20260502220905 69 22 5.2 6.1 0.00 0.00 0.00 30 1012.7
20260502220400 69 105 0.9 1.7 0.00 0.00 0.00 31 1013.2
20260502215857 69 312 2.6 2.6 0.00 0.00 0.00 30 1013.2
20260502215355 69 204 1.7 1.7 0.00 0.00 0.00 30 1013.2
20260502214851 69 83 0.9 0.9 0.00 0.00 0.00 31 1013.2
20260502214348 69 286 3.5 5.2 0.00 0.00 0.00 31 1013.2
20260502213845 68 38 1.7 1.7 0.00 0.00 0.00 31 1013.5
20260502213342 68 320 0.9 1.7 0.00 0.00 0.00 31 1013.5
20260502212841 68 108 0.0 0.9 0.00 0.00 0.00 30 1013.5
20260502212339 68 5 1.7 2.6 0.00 0.00 0.00 30 1013.5
20260502211836 68 178 6.1 11.3 0.00 0.00 0.00 31 1013.9
20260502211331 68 197 0.0 0.9 0.00 0.00 0.00 33 1013.9
20260502210829 68 148 0.0 0.9 0.00 0.00 0.00 32 1014.2
20260502210326 68 121 0.9 1.7 0.00 0.00 0.00 31 1013.9
20260502205824 68 73 0.0 0.0 0.00 0.00 0.00 31 1014.2
20260502205319 68 42 1.7 2.6 0.00 0.00 0.00 30 1014.2
20260502204817 67 199 1.7 2.6 0.00 0.00 0.00 31 1013.9
20260502204314 67 89 0.9 1.7 0.00 0.00 0.00 31 1014.2
20260502203811 67 143 0.0 0.0 0.00 0.00 0.00 31 1014.2
20260502203309 67 85 0.0 0.9 0.00 0.00 0.00 34 1014.6
20260502202809 67 335 2.6 2.6 0.00 0.00 0.00 32 1014.6
20260502202307 66 48 1.7 2.6 0.00 0.00 0.00 33 1015.0
20260502201805 66 150 0.0 0.9 0.00 0.00 0.00 33 1015.0
20260502201300 66 148 0.9 1.7 0.00 0.00 0.00 31 1015.3
20260502200757 66 26 0.0 1.7 0.00 0.00 0.00 33 1015.0
20260502200253 66 119 0.0 0.9 0.00 0.00 0.00 32 1015.3
20260502195751 66 159 2.6 4.3 0.00 0.00 0.00 32 1015.0
20260502195247 66 156 2.6 4.3 0.00 0.00 0.00 32 1015.0
20260502194744 66 179 0.0 0.9 0.00 0.00 0.00 34 1015.3
20260502194241 66 141 0.0 0.9 0.00 0.00 0.00 32 1015.6
20260502193737 66 94 2.6 2.6 0.00 0.00 0.00 32 1015.6
20260502193235 66 179 0.0 0.9 0.00 0.00 0.00 33 1015.3
20260502192734 65 335 0.9 2.6 0.00 0.00 0.00 32 1015.6
20260502192232 65 356 0.9 1.7 0.00 0.00 0.00 33 1015.6
20260502191729 65 154 0.9 0.9 0.00 0.00 0.00 34 1015.6
20260502191227 65 2 1.7 2.6 0.00 0.00 0.00 32 1016.1
20260502190724 65 70 0.9 1.7 0.00 0.00 0.00 33 1015.6
20260502190221 65 66 2.6 4.3 0.00 0.00 0.00 32 1016.1
20260502185721 65 302 2.6 4.3 0.00 0.00 0.00 32 1016.1
20260502185218 64 113 0.9 1.7 0.00 0.00 0.00 32 1016.1
20260502184714 64 151 0.9 1.7 0.00 0.00 0.00 32 1016.4
20260502184210 64 272 1.7 2.6 0.00 0.00 0.00 33 1016.4
20260502183707 64 349 3.5 5.2 0.00 0.00 0.00 32 1016.4
20260502183202 64 19 0.9 2.6 0.00 0.00 0.00 33 1016.4
20260502182658 64 142 0.0 0.9 0.00 0.00 0.00 33 1016.8
20260502182153 64 96 0.9 1.7 0.00 0.00 0.00 34 1016.4
20260502181651 64 98 0.9 1.7 0.00 0.00 0.00 33 1016.8
20260502181150 64 187 1.7 1.7 0.00 0.00 0.00 33 1016.8
20260502180647 64 156 0.0 0.0 0.00 0.00 0.00 33 1016.8
20260502180144 64 152 0.0 0.9 0.00 0.00 0.00 34 1017.1
20260502170108 61 203 3.5 5.2 0.00 0.00 0.00 35 1017.9
20260502164055 60 118 0.0 0.9 0.00 0.00 0.00 38 1018.2
20260502163550 59 87 0.9 1.7 0.00 0.00 0.00 37 1018.2
20260502163048 59 131 1.7 2.6 0.00 0.00 0.00 40 1017.9
20260502162544 59 164 1.7 2.6 0.00 0.00 0.00 39 1017.9
20260502162042 59 161 1.7 2.6 0.00 0.00 0.00 40 1017.9
20260502161538 59 61 2.6 2.6 0.00 0.00 0.00 39 1018.2
20260502161036 59 153 0.0 0.0 0.00 0.00 0.00 39 1018.2
20260502160534 59 153 0.9 0.9 0.00 0.00 0.00 38 1018.2
20260502151947 55 101 0.9 1.7 0.00 0.00 0.00 43 1018.6
20260502151444 55 79 0.9 1.7 0.00 0.00 0.00 43 1018.6
20260502150941 54 91 0.0 0.9 0.00 0.00 0.00 43 1018.6
20260502150438 53 152 0.0 0.9 0.00 0.00 0.00 43 1019.0
20260502130324 39 147 0.0 0.0 0.00 0.00 0.00 65 1019.0
20260502123809 38 147 0.0 0.0 0.00 0.00 0.00 71 1019.0
20260502123306 38 157 0.0 0.0 0.00 0.00 0.00 71 1018.6
20260502122803 38 151 0.0 0.9 0.00 0.00 0.00 71 1018.6
20260502122259 38 146 0.0 0.0 0.00 0.00 0.00 70 1018.6
20260502121757 38 151 0.0 0.0 0.00 0.00 0.00 70 1019.0
20260502121255 39 145 0.0 0.0 0.00 0.00 0.00 71 1019.0
20260502120751 39 144 0.0 0.0 0.00 0.00 0.00 70 1018.6
20260502120248 39 141 0.0 0.0 0.00 0.00 0.00 70 1018.6
20260502115746 39 140 0.0 0.0 0.00 0.00 0.00 70 1018.6
20260502115242 39 146 0.0 0.0 0.00 0.00 0.00 70 1018.6
20260502114738 39 143 0.0 0.0 0.00 0.00 0.00 69 1018.6
20260502114235 39 136 0.0 0.0 0.00 0.00 0.00 69 1018.6
20260502113732 40 135 0.0 0.0 0.00 0.00 0.00 69 1018.6
20260502113230 40 135 0.0 0.0 0.00 0.00 0.00 69 1018.6
20260502112728 40 133 0.0 0.0 0.00 0.00 0.00 69 1018.6
20260502112226 40 128 0.0 0.0 0.00 0.00 0.00 68 1018.6
20260502111722 40 121 0.0 0.9 0.00 0.00 0.00 68 1018.6
20260502111220 40 97 0.9 0.9 0.00 0.00 0.00 69 1018.6
20260502110717 40 147 0.0 0.0 0.00 0.00 0.00 69 1018.6
20260502110215 40 140 0.0 0.0 0.00 0.00 0.00 69 1018.6
20260502105712 40 142 0.0 0.0 0.00 0.00 0.00 69 1018.6
20260502105209 40 142 0.0 0.0 0.00 0.00 0.00 69 1018.2
20260502104707 40 140 0.0 0.0 0.00 0.00 0.00 68 1018.6
20260502104204 40 134 0.0 0.0 0.00 0.00 0.00 68 1018.6
20260502103702 40 139 0.0 0.0 0.00 0.00 0.00 68 1018.6
20260502103159 40 146 0.0 0.0 0.00 0.00 0.00 69 1018.6
20260502102656 41 142 0.0 0.0 0.00 0.00 0.00 69 1018.2
20260502102153 41 150 0.0 0.0 0.00 0.00 0.00 69 1018.2
20260502101651 41 146 0.0 0.0 0.00 0.00 0.00 69 1018.6
20260502101149 41 144 0.0 0.9 0.00 0.00 0.00 69 1018.6
20260502100647 41 139 0.0 0.0 0.00 0.00 0.00 69 1018.2
20260502100145 41 134 0.0 0.0 0.00 0.00 0.00 68 1018.6
20260502091119 41 142 0.0 0.0 0.00 0.00 0.00 69 1018.6
20260502090615 41 147 0.0 0.0 0.00 0.00 0.00 69 1018.6
20260502090113 42 147 0.0 0.0 0.00 0.00 0.00 69 1018.2
20260502071504 44 153 0.0 0.0 0.00 0.00 0.00 65 1017.9
20260502071002 44 157 0.0 0.0 0.00 0.00 0.00 65 1017.9
20260502070500 44 158 0.0 0.9 0.00 0.00 0.00 65 1017.9
20260502065958 44 155 0.0 0.0 0.00 0.00 0.00 66 1017.9
20260502065456 44 155 0.0 0.0 0.00 0.00 0.00 65 1018.2
20260502064954 44 153 0.0 0.0 0.00 0.00 0.00 66 1018.2
20260502064452 44 151 0.0 0.0 0.00 0.00 0.00 66 1017.9
20260502063948 44 155 0.0 0.0 0.00 0.00 0.00 66 1017.9
20260502063447 44 159 0.0 0.9 0.00 0.00 0.00 65 1017.9
20260502062944 44 161 0.0 0.9 0.00 0.00 0.00 66 1017.5
20260502062441 45 162 0.0 0.9 0.00 0.00 0.00 66 1017.9
20260502061940 45 161 0.0 0.9 0.00 0.00 0.00 66 1017.9
20260502061437 46 161 0.0 0.9 0.00 0.00 0.00 66 1017.9
20260502060932 47 163 0.0 0.9 0.00 0.00 0.00 65 1017.5
20260502060428 48 167 0.0 0.9 0.00 0.00 0.00 64 1017.5
20260502055925 49 169 0.9 0.9 0.00 0.00 0.00 63 1017.9
20260502055423 49 160 0.0 0.0 0.00 0.00 0.00 62 1017.5
20260502054923 50 161 0.0 0.9 0.00 0.00 0.00 61 1017.9
20260502054420 50 134 0.0 0.0 0.00 0.00 0.00 59 1017.5
20260502053918 51 122 0.0 0.0 0.00 0.00 0.00 59 1017.5
20260502053415 51 128 0.0 0.0 0.00 0.00 0.00 58 1017.9